This demonstration page uses our WeatherBlox Daily Observations layout. Learn more.

Left ArrowRight Arrow

44.89941, -97.11507

Hourly Observations for August 16, 2016

Temp ( °F °C ) Dew Point ( °F °C ) Humidity (%) Winds ( mph kmh ) Pressure ( in mb ) Visibility ( mi km ) Precip ( " mm )
12:53 am 00:53 Clear 68 20 65 18.3 90 90 S 8 13 29.99 1016 10 16 0.00 0.00
1:53 am 01:53 Clear 68 20 65 18.3 90 90 SSE 6 9 29.98 1015 10 16 0.00 0.00
2:53 am 02:53 Clear 67 19.4 65 18.3 93 93 SSE 7 11 29.94 1014 10 16 0.00 0.00
3:53 am 03:53 Clear 66 18.9 64 17.8 93 93 SSE 8 13 29.93 1014 10 16 0.00 0.00
4:53 am 04:53 Partly Cloudy 66 18.9 64 17.8 93 93 S 8 13 29.96 1014 8 13 0.00 0.00
5:41 am 05:41 Mostly Cloudy 66 18.9 64 17.8 93 93 SSW 6 9 29.94 1014 9 14 0.00 0.00
5:53 am 05:53 Mostly Cloudy 67 19.4 65 18.3 93 93 S 8 13 29.96 1015 10 16 0.00 0.00
6:32 am 06:32 Cloudy with Thunderstorms 67 19.4 65 18.3 93 93 SSE 8 13 29.94 1014 8 13 0.00 0.00
6:53 am 06:53 Partly Cloudy with Thunderstorms 66 18.9 64 17.8 93 93 S 8 13 29.97 1015 7 11 0.00 0.00
7:09 am 07:09 Sunny 67 19.4 65 18.3 93 93 S 8 13 29.94 1014 8 13 0.00 0.00
7:53 am 07:53 Sunny 67 19.4 65 18.3 93 93 SE 7 11 29.98 1015 8 13 0.00 0.00
8:29 am 08:29 Cloudy 68 20 65 18.3 90 90 SE 7 11 29.97 1015 9 14 0.00 0.00
8:36 am 08:36 Mostly Cloudy with Nearby Thunderstorms 69 20.6 66 18.9 90 90 SSE 8 13 29.97 1015 9 14 0.00 0.00
8:51 am 08:51 Mostly Cloudy 70 21 66 19 88 88 S 7 11 29.94 1014 10 16 0.00 0.00
8:53 am 08:53 Mostly Cloudy 69 20.6 66 18.9 90 90 SSE 7 11 29.99 1016 10 16 0.00 0.00
9:53 am 09:53 Mostly Cloudy 71 21.7 65 18.3 81 81 S 6 9 30.00 1016 10 16 0.00 0.00
10:53 am 10:53 Sunny 77 25 63 17.2 62 62 WSW 10 17 29.99 1016 10 16 0.00 0.00
11:53 am 11:53 Sunny 80 26.7 65 18.3 60 60 VRB 7 11 29.99 1016 10 16 0.00 0.00
12:53 pm 12:53 Sunny 82 27.8 62 16.7 51 51 W 10 17 29.98 1015 10 16 0.00 0.00
1:53 pm 13:53 Sunny 83 28.3 63 17.2 51 51 W 12 19 29.97 1015 10 16 0.00 0.00
2:53 pm 14:53 Sunny 84 28.9 66 18.9 55 55 W 16 26 29.96 1015 10 16 0.00 0.00
3:53 pm 15:53 Partly Cloudy 83 28.3 65 18.3 55 55 WNW 9 15 29.96 1015 10 16 0.00 0.00
4:53 pm 16:53 Partly Cloudy 86 30 62 16.7 45 45 NNW 18 30 29.95 1014 10 16 0.00 0.00
5:53 pm 17:53 Sunny 84 28.9 63 17.2 49 49 N 14 22 29.96 1015 10 16 0.00 0.00
6:53 pm 18:53 Mostly Sunny 81 27.2 65 18.3 58 58 N 10 17 29.97 1015 10 16 0.00 0.00
7:53 pm 19:53 Sunny 76 24.4 64 17.8 67 67 ENE 10 17 29.99 1016 10 16 0.00 0.00
8:53 pm 20:53 Clear 72 22.2 60 15.6 66 66 ESE 6 9 30.01 1016 10 16 0.00 0.00
9:53 pm 21:53 Clear 69 20.6 60 15.6 73 73 Calm 30.03 1017 10 16 0.00 0.00
10:53 pm 22:53 Clear 67 19.4 60 15.6 79 79 Calm 30.04 1017 10 16 0.00 0.00
11:53 pm 23:53 Clear 64 17.8 60 15.6 87 87 Calm 30.04 1017 10 16 0.00 0.00

Powered by AerisWeather